K7MLX Weather Reports


time (UTC)temp
C
wind
direction
speed
KPH
gust
KPH
rain 1hr
cm
rain 24hr
cm
rain mn
cm
humidity
%
barometer
mb
20260507040038 12 173 1.6 11.3 0.00 0.00 0.00 79 1021.0
20260507034537 12 190 1.6 11.3 0.00 0.00 0.00 78 1020.8
20260507033037 12 154 1.6 9.7 0.00 0.00 0.00 78 1020.9
20260507031540 12 186 0.0 6.4 0.00 0.00 0.00 77 1020.8
20260507030042 12 171 1.6 6.4 0.00 0.00 0.00 77 1020.7
20260507024538 12 172 1.6 8.0 0.00 0.00 0.00 77 1020.6
20260507023037 13 199 1.6 8.0 0.00 0.00 0.00 77 1020.5
20260507021535 13 167 0.0 9.7 0.00 0.00 0.00 77 1020.5
20260507020035 13 167 1.6 9.7 0.00 0.00 0.00 77 1020.4
20260507014554 13 168 1.6 8.0 0.00 0.00 0.00 77 1020.5
20260507013051 13 146 1.6 9.7 0.00 0.00 0.00 77 1020.5
20260507011540 13 159 3.2 11.3 0.00 0.00 0.00 77 1020.6
20260507010035 13 225 4.8 11.3 0.00 0.00 0.00 76 1020.5
20260507004536 13 157 3.2 9.7 0.00 0.00 0.00 76 1020.7
20260507003038 13 190 3.2 11.3 0.00 0.00 0.00 76 1020.7
20260507001555 13 164 1.6 8.0 0.00 0.00 0.00 77 1020.6
20260507000040 13 169 0.0 11.3 0.00 0.00 0.00 77 1020.6
20260506234536 13 189 3.2 9.7 0.00 0.00 0.00 77 1020.8
20260506233043 12 158 3.2 11.3 0.00 0.00 0.00 77 1020.7
20260506231541 13 171 4.8 17.7 0.00 0.00 0.00 76 1020.8
20260506230043 13 157 4.8 12.9 0.00 0.00 0.00 75 1020.8
20260506224537 13 170 1.6 11.3 0.00 0.00 0.00 76 1020.8
20260506223038 13 205 3.2 11.3 0.00 0.00 0.00 76 1020.9
20260506221537 13 153 3.2 11.3 0.00 0.00 0.00 75 1021.0
20260506220036 13 157 3.2 14.5 0.00 0.00 0.00 75 1021.0
20260506214542 13 116 3.2 16.1 0.00 0.00 0.00 74 1020.9
20260506213039 13 164 1.6 16.1 0.00 0.00 0.00 74 1020.9
20260506211540 13 160 1.6 12.9 0.00 0.00 0.00 74 1021.1
20260506210040 13 150 3.2 12.9 0.00 0.00 0.00 74 1021.0
20260506204536 13 189 6.4 14.5 0.00 0.00 0.00 74 1020.9
20260506203042 13 140 6.4 16.1 0.00 0.00 0.00 74 1020.8
20260506201534 13 209 4.8 16.1 0.00 0.00 0.00 75 1020.9
20260506200042 13 231 3.2 12.9 0.00 0.00 0.00 75 1020.8
20260506194538 13 139 3.2 11.3 0.00 0.00 0.00 74 1020.7
20260506193036 12 250 3.2 9.7 0.00 0.00 0.00 75 1020.7
20260506191541 12 121 3.2 8.0 0.00 0.00 0.00 76 1020.8
20260506190040 12 146 4.8 12.9 0.00 0.00 0.00 77 1020.6
20260506184536 12 190 4.8 17.7 0.00 0.00 0.00 78 1020.6
20260506183037 11 151 1.6 12.9 0.00 0.00 0.00 79 1020.7
20260506181543 11 178 4.8 16.1 0.00 0.00 0.00 80 1020.7
20260506180048 11 0 4.8 16.1 0.00 0.00 0.00 81 1020.6
20260506174537 10 217 3.2 12.9 0.00 0.00 0.00 82 1020.1
20260506173037 10 194 3.2 11.3 0.00 0.00 0.00 84 1020.3
20260506171548 10 186 3.2 11.3 0.00 0.00 0.00 84 1020.4
20260506170037 10 125 3.2 11.3 0.00 0.00 0.00 84 1020.6
20260506164539 10 167 3.2 11.3 0.00 0.00 0.00 85 1020.4
20260506163047 10 0 3.2 19.3 0.00 0.00 0.00 86 1020.5
20260506161548 10 126 4.8 11.3 0.00 0.00 0.00 87 1019.9
20260506160036 10 175 3.2 12.9 0.00 0.00 0.00 87 1019.5
20260506154537 10 103 4.8 11.3 0.00 0.00 0.00 87 1019.6
20260506153043 9 148 4.8 14.5 0.00 0.00 0.00 87 1019.9
20260506151538 9 120 1.6 11.3 0.00 0.00 0.00 87 1020.1
20260506150037 9 138 1.6 12.9 0.00 0.00 0.00 86 1019.8
20260506144535 9 162 0.0 11.3 0.00 0.00 0.00 86 1019.7
20260506143034 9 161 3.2 9.7 0.00 0.00 0.00 85 1019.8
20260506141540 9 150 0.0 3.2 0.00 0.00 0.00 85 1019.7
20260506140045 9 0 0.0 8.0 0.00 0.00 0.00 84 1019.6
20260506134606 9 0 0.0 12.9 0.00 0.00 0.00 84 1019.6
20260506133035 9 157 0.0 6.4 0.00 0.00 0.00 84 1019.5
20260506131539 9 78 3.2 9.7 0.00 0.00 0.00 84 1019.3
20260506130040 10 0 1.6 14.5 0.00 0.00 0.00 83 1019.4
20260506124538 10 168 4.8 11.3 0.00 0.00 0.00 83 1019.0
20260506123043 10 169 3.2 14.5 0.00 0.00 0.00 83 1019.0
20260506121538 10 182 1.6 12.9 0.00 0.00 0.00 83 1018.9
20260506120043 10 193 3.2 9.7 0.00 0.00 0.00 83 1018.8
20260506114547 10 173 1.6 12.9 0.00 0.00 0.00 83 1018.8
20260506113042 10 159 4.8 11.3 0.00 0.00 0.00 83 1018.6
20260506111537 10 0 1.6 9.7 0.00 0.00 0.00 83 1018.6
20260506110036 10 174 1.6 9.7 0.00 0.00 0.00 83 1018.6
20260506104536 10 168 1.6 8.0 0.00 0.00 0.00 83 1018.4
20260506103038 10 156 3.2 8.0 0.00 0.00 0.00 83 1018.4
20260506101541 10 0 0.0 8.0 0.00 0.00 0.00 83 1018.3
20260506100038 10 158 1.6 8.0 0.00 0.00 0.00 83 1018.4
20260506094536 10 0 1.6 11.3 0.00 0.00 0.00 83 1018.2
20260506093036 10 0 1.6 8.0 0.00 0.00 0.00 82 1017.9
20260506091532 10 0 0.0 11.3 0.00 0.00 0.00 82 1017.9
20260506090040 10 153 3.2 9.7 0.00 0.00 0.00 82 1017.8
20260506084540 10 228 1.6 9.7 0.00 0.00 0.00 81 1017.6
20260506083037 10 144 3.2 9.7 0.00 0.00 0.00 81 1017.5
20260506081545 11 147 1.6 9.7 0.00 0.00 0.00 81 1017.4
20260506073042 11 143 1.6 9.7 0.00 0.00 0.00 80 1017.1
20260506071538 11 157 1.6 4.8 0.00 0.00 0.00 80 1017.0
20260506061541 12 0 0.0 9.7 0.00 0.00 0.00 79 1016.6
20260506044539 15 175 3.2 9.7 0.00 0.00 0.00 77 1015.6
20260506043036 15 179 3.2 8.0 0.00 0.00 0.00 77 1015.7
20260506041540 15 171 0.0 6.4 0.00 0.00 0.00 77 1015.5